Location: Zagreb
(45.8000°N, 16.0000°E)
Time: 19:57:40
(UTC+01:00)

Oscar 11 - Pass Details

Date: 08 November 2020
Orbit: 613 x 625 km, 97.6° (Epoch: 01 December)

Event Time Altitude Azimuth Distance (km) Brightness Sun altitude
Rises 16:59:33 0° 155° (SSE) 2,877 10.4 -5.2°
Reaches altitude 10° 17:01:45 10° 151° (SSE) 1,975 9.5 -5.6°
Maximum altitude 17:05:57 57° 73° (ENE) 732 7.1 -6.3°
Drops below altitude 10° 17:10:11 10° 355° (N) 1,984 9.5 -7.0°
Sets 17:12:24 0° 352° (N) 2,893 10.4 -7.4°
